This is the latest recevied weather packets stored in our database for station/object KC5DAQ-28. If no packets are shown the sender has not sent any weather packets the latest 10 day(s).
| Time | Temp. | Humidity | Pressure | Rain* | Wind** | Luminosity | Snow |
|---|---|---|---|---|---|---|---|
| 1777568361 | 25.56° C | 82% | 1004.4 hPa | 0 mm | - | 526 W/m² | - |
| 1777568302 | 25.56° C | 82% | 1004.5 hPa | 0 mm | - | 811 W/m² | - |
| 1777568241 | 25.56° C | 82% | 1004.6 hPa | 0 mm | - | 426 W/m² | - |
| 1777568181 | 25.56° C | 81% | 1004.6 hPa | 0 mm | - | 440 W/m² | - |
| 1777568122 | 26.11° C | 82% | 1004.7 hPa | 0 mm | - | 440 W/m² | - |
| 1777568064 | 26.11° C | 82% | 1004.7 hPa | 0 mm | - | 967 W/m² | - |
| 1777568003 | 26.11° C | 82% | 1004.8 hPa | 0 mm | - | 967 W/m² | - |
| 1777567941 | 26.11° C | 83% | 1004.7 hPa | 0 mm | - | 967 W/m² | - |
| 1777567882 | 26.11° C | 82% | 1004.7 hPa | 0 mm | - | 967 W/m² | - |
| 1777567822 | 26.11° C | 84% | 1004.6 hPa | 0 mm | - | 943 W/m² | - |
| 1777567762 | 25.56° C | 84% | 1004.6 hPa | 0 mm | - | 1036 W/m² | - |
| 1777567703 | 25.56° C | 84% | 1004.6 hPa | 0 mm | - | 1036 W/m² | - |
| 1777567642 | 25.56° C | 83% | 1004.6 hPa | 0 mm | - | 1023 W/m² | - |
| 1777567581 | 25.56° C | 82% | 1004.6 hPa | 0 mm | - | 1004 W/m² | - |
| 1777567522 | 25.56° C | 82% | 1004.6 hPa | 0 mm | - | 1004 W/m² | - |
| 1777567463 | 25.56° C | 82% | 1004.6 hPa | 0 mm | - | 540 W/m² | - |
| 1777567402 | 25.56° C | 83% | 1004.8 hPa | 0 mm | - | 540 W/m² | - |
| 1777567339 | 25.56° C | 83% | 1004.7 hPa | 0 mm | - | 540 W/m² | - |
| 1777567272 | 25.56° C | 83% | 1004.6 hPa | 0 mm | - | 352 W/m² | - |
| 1777567211 | 25.56° C | 84% | 1004.7 hPa | 0 mm | - | 375 W/m² | - |
| 1777567148 | 25.56° C | 83% | 1004.7 hPa | 0 mm | - | 615 W/m² | - |
| 1777567083 | 25.56° C | 83% | 1004.7 hPa | 0 mm | - | 615 W/m² | - |
| 1777567023 | 25.56° C | 83% | 1004.7 hPa | 0 mm | - | 825 W/m² | - |
| 1777566964 | 25.56° C | 83% | 1004.7 hPa | 0 mm | - | 489 W/m² | - |
| 1777566904 | 25.56° C | 83% | 1004.7 hPa | 0 mm | - | 473 W/m² | - |
* Rain latest hour (hover to see other rain measurements)
** Current wind speed in m/s (hover to see current wind gust speed)